Year,Month,Day,Hour,Minute,Value (Times are PST for temperature in C)
2020,04,27,00,00,8.60
2020,04,27,00,01,8.70
2020,04,27,00,02,8.60
2020,04,27,00,03,8.60
2020,04,27,00,04,8.60
2020,04,27,00,05,8.60
2020,04,27,00,06,8.60
2020,04,27,00,07,8.60
2020,04,27,00,08,8.60
2020,04,27,00,09,8.60
2020,04,27,00,10,8.60
2020,04,27,00,11,8.60
2020,04,27,00,12,8.60
2020,04,27,00,13,8.60
2020,04,27,00,14,8.60
2020,04,27,00,15,8.60
2020,04,27,00,16,8.60
2020,04,27,00,17,8.60
2020,04,27,00,18,8.60
2020,04,27,00,19,8.60
2020,04,27,00,20,8.60
2020,04,27,00,21,8.60
2020,04,27,00,22,8.60
2020,04,27,00,23,8.60
2020,04,27,00,24,8.60
2020,04,27,00,25,8.50
2020,04,27,00,26,8.60
2020,04,27,00,27,8.50
2020,04,27,00,28,8.50
2020,04,27,00,29,8.50
2020,04,27,00,30,8.50
2020,04,27,00,31,8.50
2020,04,27,00,32,8.40
2020,04,27,00,33,8.40
2020,04,27,00,34,8.40
2020,04,27,00,35,8.40
2020,04,27,00,36,8.40
2020,04,27,00,37,8.40
2020,04,27,00,38,8.40
2020,04,27,00,39,8.40
2020,04,27,00,40,8.30
2020,04,27,00,41,8.30
2020,04,27,00,42,8.30
2020,04,27,00,43,8.30
2020,04,27,00,44,8.30
2020,04,27,00,45,8.30
2020,04,27,00,46,8.30
2020,04,27,00,47,8.30
2020,04,27,00,48,8.20
2020,04,27,00,49,8.20
2020,04,27,00,50,8.20
2020,04,27,00,51,8.20
2020,04,27,00,52,8.20
2020,04,27,00,53,8.20
2020,04,27,00,54,8.20
2020,04,27,00,55,8.20
2020,04,27,00,56,8.20
2020,04,27,00,57,8.20
2020,04,27,00,58,8.20
2020,04,27,00,59,8.10
2020,04,27,01,00,8.20
2020,04,27,01,01,8.10
2020,04,27,01,02,8.10
2020,04,27,01,03,8.20
2020,04,27,01,04,8.10
2020,04,27,01,05,8.10
2020,04,27,01,06,8.10
2020,04,27,01,07,8.10
2020,04,27,01,08,8.10
2020,04,27,01,09,8.10
2020,04,27,01,10,8.10
2020,04,27,01,11,8.10
2020,04,27,01,12,8.10
2020,04,27,01,13,8.10
2020,04,27,01,14,8.10
2020,04,27,01,15,8.10
2020,04,27,01,16,8.10
2020,04,27,01,17,8.10
2020,04,27,01,18,8.10
2020,04,27,01,19,8.10
2020,04,27,01,20,8.10
2020,04,27,01,21,8.10
2020,04,27,01,22,8.20
2020,04,27,01,23,8.20
2020,04,27,01,24,8.20
2020,04,27,01,25,8.20
2020,04,27,01,26,8.20
2020,04,27,01,27,8.20
2020,04,27,01,28,8.20
2020,04,27,01,29,8.20
2020,04,27,01,30,8.30
2020,04,27,01,31,8.30
2020,04,27,01,32,8.30
2020,04,27,01,33,8.30
2020,04,27,01,34,8.30
2020,04,27,01,35,8.30
2020,04,27,01,36,8.30
2020,04,27,01,37,8.30
2020,04,27,01,38,8.30
2020,04,27,01,39,8.30
2020,04,27,01,40,8.30
2020,04,27,01,41,8.30
2020,04,27,01,42,8.30
2020,04,27,01,43,8.30
2020,04,27,01,44,8.30
2020,04,27,01,45,8.30
2020,04,27,01,46,8.30
2020,04,27,01,47,8.30
2020,04,27,01,48,8.30
2020,04,27,01,49,8.30
2020,04,27,01,50,8.30
2020,04,27,01,51,8.30
2020,04,27,01,52,8.30
2020,04,27,01,53,8.30
2020,04,27,01,54,8.30
2020,04,27,01,55,8.30
2020,04,27,01,56,8.30
2020,04,27,01,57,8.30
2020,04,27,01,58,8.30
2020,04,27,01,59,8.30
2020,04,27,02,00,8.30
2020,04,27,02,01,8.30
2020,04,27,02,02,8.30
2020,04,27,02,03,8.30
2020,04,27,02,04,8.20
2020,04,27,02,05,8.20
2020,04,27,02,06,8.20
2020,04,27,02,07,8.20
2020,04,27,02,08,8.20
2020,04,27,02,09,8.20
2020,04,27,02,10,8.20
2020,04,27,02,11,8.20
2020,04,27,02,12,8.20
2020,04,27,02,13,8.20
2020,04,27,02,14,8.20
2020,04,27,02,15,8.20
2020,04,27,02,16,8.20
2020,04,27,02,17,8.20
2020,04,27,02,18,8.20
2020,04,27,02,19,8.10
2020,04,27,02,20,8.10
2020,04,27,02,21,8.10
2020,04,27,02,22,8.10
2020,04,27,02,23,8.10
2020,04,27,02,24,8.10
2020,04,27,02,25,8.10
2020,04,27,02,26,8.10
2020,04,27,02,27,8.10
2020,04,27,02,28,8.10
2020,04,27,02,29,8.10
2020,04,27,02,30,8.00
2020,04,27,02,31,8.00
2020,04,27,02,32,8.00
2020,04,27,02,33,8.00
2020,04,27,02,34,7.90
2020,04,27,02,35,7.90
2020,04,27,02,36,7.90
2020,04,27,02,37,7.90
2020,04,27,02,38,7.90
2020,04,27,02,39,7.90
2020,04,27,02,40,7.90
2020,04,27,02,41,7.90
2020,04,27,02,42,7.80
2020,04,27,02,43,7.80
2020,04,27,02,44,7.80
2020,04,27,02,45,7.80
2020,04,27,02,46,7.80
2020,04,27,02,47,7.80
2020,04,27,02,48,7.70
2020,04,27,02,49,7.70
2020,04,27,02,50,7.70
2020,04,27,02,51,7.70
2020,04,27,02,52,7.70
2020,04,27,02,53,7.70
2020,04,27,02,54,7.70
2020,04,27,02,55,7.70
2020,04,27,02,56,7.70
2020,04,27,02,57,7.70
2020,04,27,02,58,7.70
2020,04,27,02,59,7.70
2020,04,27,03,00,7.70
2020,04,27,03,01,7.80
2020,04,27,03,02,7.80
2020,04,27,03,03,7.80
2020,04,27,03,04,7.80
2020,04,27,03,05,7.80
2020,04,27,03,06,7.90
2020,04,27,03,07,7.90
2020,04,27,03,08,7.90
2020,04,27,03,09,7.90
2020,04,27,03,10,7.90
2020,04,27,03,11,7.90
2020,04,27,03,12,7.90
2020,04,27,03,13,7.90
2020,04,27,03,14,7.90
2020,04,27,03,15,7.90
2020,04,27,03,16,7.90
2020,04,27,03,17,7.90
2020,04,27,03,18,7.90
2020,04,27,03,19,7.90
2020,04,27,03,20,7.90
2020,04,27,03,21,7.90
2020,04,27,03,22,7.90
2020,04,27,03,23,7.90
2020,04,27,03,24,7.90
2020,04,27,03,25,7.90
2020,04,27,03,26,7.90
2020,04,27,03,27,8.00
2020,04,27,03,28,8.00
2020,04,27,03,29,8.00
2020,04,27,03,30,8.00
2020,04,27,03,31,8.00
2020,04,27,03,32,8.00
2020,04,27,03,33,8.00
2020,04,27,03,34,8.00
2020,04,27,03,35,8.00
2020,04,27,03,36,8.00
2020,04,27,03,37,8.00
2020,04,27,03,38,8.00
2020,04,27,03,39,8.00
2020,04,27,03,40,8.00
2020,04,27,03,41,8.10
2020,04,27,03,42,8.10
2020,04,27,03,43,8.10
2020,04,27,03,44,8.10
2020,04,27,03,45,8.10
2020,04,27,03,46,8.20
2020,04,27,03,47,8.20
2020,04,27,03,48,8.20
2020,04,27,03,49,8.20
2020,04,27,03,50,8.20
2020,04,27,03,51,8.20
2020,04,27,03,52,8.20
2020,04,27,03,53,8.20
2020,04,27,03,54,8.20
2020,04,27,03,55,8.30
2020,04,27,03,56,8.30
2020,04,27,03,57,8.30
2020,04,27,03,58,8.30
2020,04,27,03,59,8.30
2020,04,27,04,00,8.30
2020,04,27,04,01,8.30
2020,04,27,04,02,8.30
2020,04,27,04,03,8.30
2020,04,27,04,04,8.30
2020,04,27,04,05,8.30
2020,04,27,04,06,8.30
2020,04,27,04,07,8.30
2020,04,27,04,08,8.30
2020,04,27,04,09,8.30
2020,04,27,04,10,8.30
2020,04,27,04,11,8.30
2020,04,27,04,12,8.30
2020,04,27,04,13,8.30
2020,04,27,04,14,8.30
2020,04,27,04,15,8.30
2020,04,27,04,16,8.30
2020,04,27,04,17,8.30
2020,04,27,04,18,8.30
2020,04,27,04,19,8.30
2020,04,27,04,20,8.30
2020,04,27,04,21,8.20
2020,04,27,04,22,8.20
2020,04,27,04,23,8.20
2020,04,27,04,24,8.20
2020,04,27,04,25,8.20
2020,04,27,04,26,8.20
2020,04,27,04,27,8.20
2020,04,27,04,28,8.20
2020,04,27,04,29,8.20
2020,04,27,04,30,8.20
2020,04,27,04,31,8.20
2020,04,27,04,32,8.20
2020,04,27,04,33,8.20
2020,04,27,04,34,8.10
2020,04,27,04,35,8.10
2020,04,27,04,36,8.10
2020,04,27,04,37,8.10
2020,04,27,04,38,8.10
2020,04,27,04,39,8.10
2020,04,27,04,40,8.10
2020,04,27,04,41,8.10
2020,04,27,04,42,8.10
2020,04,27,04,43,8.00
2020,04,27,04,44,8.00
2020,04,27,04,45,8.00
2020,04,27,04,46,8.00
2020,04,27,04,47,8.00
2020,04,27,04,48,8.00
2020,04,27,04,49,7.90
2020,04,27,04,50,7.90
2020,04,27,04,51,7.90
2020,04,27,04,52,7.90
2020,04,27,04,53,7.90
2020,04,27,04,54,7.90
2020,04,27,04,55,7.90
2020,04,27,04,56,7.90
2020,04,27,04,57,7.80
2020,04,27,04,58,7.80
2020,04,27,04,59,7.80
2020,04,27,05,00,7.80
2020,04,27,05,01,7.80
2020,04,27,05,02,7.80
2020,04,27,05,03,7.70
2020,04,27,05,04,7.80
2020,04,27,05,05,7.70
2020,04,27,05,06,7.70
2020,04,27,05,07,7.70
2020,04,27,05,08,7.70
2020,04,27,05,09,7.70
2020,04,27,05,10,7.70
2020,04,27,05,11,7.70
2020,04,27,05,12,7.70
2020,04,27,05,13,7.70
2020,04,27,05,14,7.60
2020,04,27,05,15,7.60
2020,04,27,05,16,7.60
2020,04,27,05,17,7.60
2020,04,27,05,18,7.60
2020,04,27,05,19,7.60
2020,04,27,05,20,7.60
2020,04,27,05,21,7.60
2020,04,27,05,22,7.60
2020,04,27,05,23,7.60
2020,04,27,05,24,7.60
2020,04,27,05,25,7.60
2020,04,27,05,26,7.60
2020,04,27,05,27,7.60
2020,04,27,05,28,7.60
2020,04,27,05,29,7.50
2020,04,27,05,30,7.50
2020,04,27,05,31,7.50
2020,04,27,05,32,7.50
2020,04,27,05,33,7.50
2020,04,27,05,34,7.50
2020,04,27,05,35,7.50
2020,04,27,05,36,7.50
2020,04,27,05,37,7.50
2020,04,27,05,38,7.50
2020,04,27,05,39,7.50
2020,04,27,05,40,7.60
2020,04,27,05,41,7.60
2020,04,27,05,42,7.60
2020,04,27,05,43,7.70
2020,04,27,05,44,7.70
2020,04,27,05,45,7.80
2020,04,27,05,46,7.80
2020,04,27,05,47,7.80
2020,04,27,05,48,7.90
2020,04,27,05,49,7.90
2020,04,27,05,50,7.90
2020,04,27,05,51,8.00
2020,04,27,05,52,8.00
2020,04,27,05,53,8.00
2020,04,27,05,54,8.00
2020,04,27,05,55,8.10
2020,04,27,05,56,8.10
2020,04,27,05,57,8.10
2020,04,27,05,58,8.20
2020,04,27,05,59,8.20
2020,04,27,06,00,8.20
2020,04,27,06,01,8.20
2020,04,27,06,02,8.20
2020,04,27,06,03,8.30
2020,04,27,06,04,8.30
2020,04,27,06,05,8.30
2020,04,27,06,06,8.30
2020,04,27,06,07,8.30
2020,04,27,06,08,8.30
2020,04,27,06,09,8.40
2020,04,27,06,10,8.40
2020,04,27,06,11,8.40
2020,04,27,06,12,8.40
2020,04,27,06,13,8.40
2020,04,27,06,14,8.40
2020,04,27,06,15,8.40
2020,04,27,06,16,8.40
2020,04,27,06,17,8.40
2020,04,27,06,18,8.40
2020,04,27,06,19,8.40
2020,04,27,06,20,8.30
2020,04,27,06,21,8.30
2020,04,27,06,22,8.30
2020,04,27,06,23,8.30
2020,04,27,06,24,8.20
2020,04,27,06,25,8.20
2020,04,27,06,26,8.20
2020,04,27,06,27,8.10
2020,04,27,06,28,8.10
2020,04,27,06,29,8.10
2020,04,27,06,30,8.10
2020,04,27,06,31,8.10
2020,04,27,06,32,8.10
2020,04,27,06,33,8.10
2020,04,27,06,34,8.10
2020,04,27,06,35,8.10
2020,04,27,06,36,8.10
2020,04,27,06,37,8.10
2020,04,27,06,38,8.10
2020,04,27,06,39,8.20
2020,04,27,06,40,8.20
2020,04,27,06,41,8.30
2020,04,27,06,42,8.30
2020,04,27,06,43,8.30
2020,04,27,06,44,8.40
2020,04,27,06,45,8.40
2020,04,27,06,46,8.40
2020,04,27,06,47,8.40
2020,04,27,06,48,8.50
2020,04,27,06,49,8.50
2020,04,27,06,50,8.50
2020,04,27,06,51,8.60
2020,04,27,06,52,8.60
2020,04,27,06,53,8.60
2020,04,27,06,54,8.70
2020,04,27,06,55,8.70
2020,04,27,06,56,8.80
2020,04,27,06,57,8.80
2020,04,27,06,58,8.90
2020,04,27,06,59,8.90
2020,04,27,07,00,9.00
2020,04,27,07,01,9.00
2020,04,27,07,02,9.10
2020,04,27,07,03,9.10
2020,04,27,07,04,9.10
2020,04,27,07,05,9.20
2020,04,27,07,06,9.20
2020,04,27,07,07,9.30
2020,04,27,07,08,9.30
2020,04,27,07,09,9.30
2020,04,27,07,10,9.40
2020,04,27,07,11,9.40
2020,04,27,07,12,9.40
2020,04,27,07,13,9.40
2020,04,27,07,14,9.40
2020,04,27,07,15,9.40
2020,04,27,07,16,9.50
2020,04,27,07,17,9.50
2020,04,27,07,18,9.50
2020,04,27,07,19,9.50
2020,04,27,07,20,9.50
2020,04,27,07,21,9.60
2020,04,27,07,22,9.60
2020,04,27,07,23,9.60
2020,04,27,07,24,9.60
2020,04,27,07,25,9.60
2020,04,27,07,26,9.60
2020,04,27,07,27,9.70
2020,04,27,07,28,9.70
2020,04,27,07,29,9.70
2020,04,27,07,30,9.70
2020,04,27,07,31,9.80
2020,04,27,07,32,9.80
2020,04,27,07,33,9.80
2020,04,27,07,34,9.80
2020,04,27,07,35,9.80
2020,04,27,07,36,9.80
2020,04,27,07,37,9.90
2020,04,27,07,38,9.90
2020,04,27,07,39,9.90
2020,04,27,07,40,9.90
2020,04,27,07,41,9.90
2020,04,27,07,42,9.90
2020,04,27,07,43,9.90
2020,04,27,07,44,10.00
2020,04,27,07,45,10.00
2020,04,27,07,46,10.00
2020,04,27,07,47,10.10
2020,04,27,07,48,10.10
2020,04,27,07,49,10.10
2020,04,27,07,50,10.10
2020,04,27,07,51,10.20
2020,04,27,07,52,10.20
2020,04,27,07,53,10.20
2020,04,27,07,54,10.30
2020,04,27,07,55,10.30
2020,04,27,07,56,10.30
2020,04,27,07,57,10.40
2020,04,27,07,58,10.40
2020,04,27,07,59,10.40
2020,04,27,08,00,10.40
2020,04,27,08,01,10.50
2020,04,27,08,02,10.60
2020,04,27,08,03,10.60
2020,04,27,08,04,10.60
2020,04,27,08,05,10.70
2020,04,27,08,06,10.70
2020,04,27,08,07,10.70
2020,04,27,08,08,10.70
2020,04,27,08,09,10.80
2020,04,27,08,10,10.80
2020,04,27,08,11,10.80
2020,04,27,08,12,10.80
2020,04,27,08,13,10.90
2020,04,27,08,14,10.90
2020,04,27,08,15,10.90
2020,04,27,08,16,10.90
2020,04,27,08,17,11.00
2020,04,27,08,18,11.00
2020,04,27,08,19,11.10
2020,04,27,08,20,11.10
2020,04,27,08,21,11.10
2020,04,27,08,22,11.20
2020,04,27,08,23,11.20
2020,04,27,08,24,11.20
2020,04,27,08,25,11.30
2020,04,27,08,26,11.30
2020,04,27,08,27,11.30
2020,04,27,08,28,11.40
2020,04,27,08,29,11.40
2020,04,27,08,30,11.40
2020,04,27,08,31,11.40
2020,04,27,08,32,11.50
2020,04,27,08,33,11.50
2020,04,27,08,34,11.60
2020,04,27,08,35,11.60
2020,04,27,08,36,11.60
2020,04,27,08,37,11.60
2020,04,27,08,38,11.70
2020,04,27,08,39,11.70
2020,04,27,08,40,11.70
2020,04,27,08,41,11.80
2020,04,27,08,42,11.80
2020,04,27,08,43,11.80
2020,04,27,08,44,11.90
2020,04,27,08,45,11.90
2020,04,27,08,46,11.90
2020,04,27,08,47,12.00
2020,04,27,08,48,12.00
2020,04,27,08,49,12.10
2020,04,27,08,50,12.10
2020,04,27,08,51,12.10
2020,04,27,08,52,12.10
2020,04,27,08,53,12.20
2020,04,27,08,54,12.20
2020,04,27,08,55,12.20
2020,04,27,08,56,12.20
2020,04,27,08,57,12.20
2020,04,27,08,58,12.30
2020,04,27,08,59,12.30
2020,04,27,09,00,12.30
2020,04,27,09,01,12.30
2020,04,27,09,02,12.40
2020,04,27,09,03,12.40
2020,04,27,09,04,12.40
2020,04,27,09,05,12.40
2020,04,27,09,06,12.40
2020,04,27,09,07,12.50
2020,04,27,09,08,12.50
2020,04,27,09,09,12.60
2020,04,27,09,10,12.60
2020,04,27,09,11,12.60
2020,04,27,09,12,12.60
2020,04,27,09,13,12.60
2020,04,27,09,14,12.60
2020,04,27,09,15,12.60
2020,04,27,09,16,12.70
2020,04,27,09,17,12.70
2020,04,27,09,18,12.80
2020,04,27,09,19,12.80
2020,04,27,09,20,12.80
2020,04,27,09,21,12.80
2020,04,27,09,22,12.90
2020,04,27,09,23,12.90
2020,04,27,09,24,12.90
2020,04,27,09,25,13.00
2020,04,27,09,26,12.90
2020,04,27,09,27,12.90
2020,04,27,09,28,12.90
2020,04,27,09,29,12.80
2020,04,27,09,30,12.80
2020,04,27,09,31,12.80
2020,04,27,09,32,12.80
2020,04,27,09,33,12.80
2020,04,27,09,34,12.80
2020,04,27,09,35,12.80
2020,04,27,09,36,12.80
2020,04,27,09,37,12.80
2020,04,27,09,38,12.80
2020,04,27,09,39,12.80
2020,04,27,09,40,12.90
2020,04,27,09,41,12.90
2020,04,27,09,42,13.00
2020,04,27,09,43,13.00
2020,04,27,09,44,13.00
2020,04,27,09,45,13.00
2020,04,27,09,46,13.00
2020,04,27,09,47,13.00
2020,04,27,09,48,13.10
2020,04,27,09,49,13.10
2020,04,27,09,50,13.20
2020,04,27,09,51,13.20
2020,04,27,09,52,13.20
2020,04,27,09,53,13.20
2020,04,27,09,54,13.20
2020,04,27,09,55,13.20
2020,04,27,09,56,13.30
2020,04,27,09,57,13.30
2020,04,27,09,58,13.40
2020,04,27,09,59,13.40
2020,04,27,10,00,13.40
2020,04,27,10,01,13.40
2020,04,27,10,02,13.40
2020,04,27,10,03,13.40
2020,04,27,10,04,13.50
2020,04,27,10,05,13.50
2020,04,27,10,06,13.50
2020,04,27,10,07,13.50
2020,04,27,10,08,13.50
2020,04,27,10,09,13.50
2020,04,27,10,10,13.50
2020,04,27,10,11,13.50
2020,04,27,10,12,13.50
2020,04,27,10,13,13.40
2020,04,27,10,14,13.50
2020,04,27,10,15,13.60
2020,04,27,10,16,13.60
2020,04,27,10,17,13.60
2020,04,27,10,18,13.60
2020,04,27,10,19,13.60
2020,04,27,10,20,13.60
2020,04,27,10,21,13.60
2020,04,27,10,22,13.60
2020,04,27,10,23,13.60
2020,04,27,10,24,13.70
2020,04,27,10,25,13.60
2020,04,27,10,26,13.60
2020,04,27,10,27,13.60
2020,04,27,10,28,13.70
2020,04,27,10,29,13.70
2020,04,27,10,30,13.70
2020,04,27,10,31,13.80
2020,04,27,10,32,13.80
2020,04,27,10,33,13.80
2020,04,27,10,34,13.70
2020,04,27,10,35,13.70
2020,04,27,10,36,13.70
2020,04,27,10,37,13.70
2020,04,27,10,38,13.80
2020,04,27,10,39,13.80
2020,04,27,10,40,13.90
2020,04,27,10,41,13.90
2020,04,27,10,42,14.00
2020,04,27,10,43,14.00
2020,04,27,10,44,14.10
2020,04,27,10,45,14.10
2020,04,27,10,46,14.10
2020,04,27,10,47,14.10
2020,04,27,10,48,14.20
2020,04,27,10,49,14.20
2020,04,27,10,50,14.20
2020,04,27,10,51,14.30
2020,04,27,10,52,14.30
2020,04,27,10,53,14.20
2020,04,27,10,54,14.20
2020,04,27,10,55,14.10
2020,04,27,10,56,14.10
2020,04,27,10,57,14.00
2020,04,27,10,58,14.00
2020,04,27,10,59,14.00
2020,04,27,11,00,13.90
2020,04,27,11,01,14.00
2020,04,27,11,02,14.00
2020,04,27,11,03,14.10
2020,04,27,11,04,14.10
2020,04,27,11,05,14.20
2020,04,27,11,06,14.30
2020,04,27,11,07,14.30
2020,04,27,11,08,14.30
2020,04,27,11,09,14.30
2020,04,27,11,10,14.30
2020,04,27,11,11,14.20
2020,04,27,11,12,14.10
2020,04,27,11,13,14.00
2020,04,27,11,14,13.90
2020,04,27,11,15,13.90
2020,04,27,11,16,13.80
2020,04,27,11,17,13.80
2020,04,27,11,18,13.80
2020,04,27,11,19,13.80
2020,04,27,11,20,13.90
2020,04,27,11,21,13.90
2020,04,27,11,22,13.90
2020,04,27,11,23,13.90
2020,04,27,11,24,13.90
2020,04,27,11,25,13.80
2020,04,27,11,26,13.80
2020,04,27,11,27,13.70
2020,04,27,11,28,13.60
2020,04,27,11,29,13.60
2020,04,27,11,30,13.60
2020,04,27,11,31,13.60
2020,04,27,11,32,13.50
2020,04,27,11,33,13.40
2020,04,27,11,34,13.40
2020,04,27,11,35,13.30
2020,04,27,11,36,13.30
2020,04,27,11,37,13.30
2020,04,27,11,38,13.30
2020,04,27,11,39,13.30
2020,04,27,11,40,13.30
2020,04,27,11,41,13.30
2020,04,27,11,42,13.40
2020,04,27,11,43,13.50
2020,04,27,11,44,13.50
2020,04,27,11,45,13.60
2020,04,27,11,46,13.60
2020,04,27,11,47,13.60
2020,04,27,11,48,13.60
2020,04,27,11,49,13.50
2020,04,27,11,50,13.50
2020,04,27,11,51,13.40
2020,04,27,11,52,13.30
2020,04,27,11,53,13.30
2020,04,27,11,54,13.30
2020,04,27,11,55,13.30
2020,04,27,11,56,13.30
2020,04,27,11,57,13.20
2020,04,27,11,58,13.20
2020,04,27,11,59,13.20
2020,04,27,12,00,13.10
2020,04,27,12,01,13.10
2020,04,27,12,02,13.10
2020,04,27,12,03,13.10
2020,04,27,12,04,13.10
2020,04,27,12,05,13.10
2020,04,27,12,06,13.10
2020,04,27,12,07,13.00
2020,04,27,12,08,13.00
2020,04,27,12,09,13.00
2020,04,27,12,10,12.90
2020,04,27,12,11,12.90
2020,04,27,12,12,12.80
2020,04,27,12,13,12.80
2020,04,27,12,14,12.80
2020,04,27,12,15,12.70
2020,04,27,12,16,12.70
2020,04,27,12,17,12.70
2020,04,27,12,18,12.70
2020,04,27,12,19,12.70
2020,04,27,12,20,12.70
2020,04,27,12,21,12.70
2020,04,27,12,22,12.80
2020,04,27,12,23,12.80
2020,04,27,12,24,12.80
2020,04,27,12,25,12.80
2020,04,27,12,26,12.90
2020,04,27,12,27,13.00
2020,04,27,12,28,13.10
2020,04,27,12,29,13.20
2020,04,27,12,30,13.30
2020,04,27,12,31,13.50
2020,04,27,12,32,13.60
2020,04,27,12,33,13.70
2020,04,27,12,34,13.70
2020,04,27,12,35,13.80
2020,04,27,12,36,13.80
2020,04,27,12,37,13.90
2020,04,27,12,38,14.00
2020,04,27,12,39,14.10
2020,04,27,12,40,14.20
2020,04,27,12,41,14.20
2020,04,27,12,42,14.30
2020,04,27,12,43,14.40
2020,04,27,12,44,14.50
2020,04,27,12,45,14.50
2020,04,27,12,46,14.50
2020,04,27,12,47,14.40
2020,04,27,12,48,14.40
2020,04,27,12,49,14.50
2020,04,27,12,50,14.60
2020,04,27,12,51,14.60
2020,04,27,12,52,14.60
2020,04,27,12,53,14.60
2020,04,27,12,54,14.50
2020,04,27,12,55,14.40
2020,04,27,12,56,14.30
2020,04,27,12,57,14.20
2020,04,27,12,58,14.10
2020,04,27,12,59,14.00
2020,04,27,13,00,13.90
2020,04,27,13,01,13.70
2020,04,27,13,02,13.40
2020,04,27,13,03,13.20
2020,04,27,13,04,13.00
2020,04,27,13,05,12.80
2020,04,27,13,06,12.60
2020,04,27,13,07,12.60
2020,04,27,13,08,12.50
2020,04,27,13,09,12.50
2020,04,27,13,10,12.60
2020,04,27,13,11,12.60
2020,04,27,13,12,12.70
2020,04,27,13,13,12.80
2020,04,27,13,14,12.90
2020,04,27,13,15,13.00
2020,04,27,13,16,13.10
2020,04,27,13,17,13.10
2020,04,27,13,18,13.20
2020,04,27,13,19,13.20
2020,04,27,13,20,13.20
2020,04,27,13,21,13.20
2020,04,27,13,22,13.20
2020,04,27,13,23,13.30
2020,04,27,13,24,13.30
2020,04,27,13,25,13.30
2020,04,27,13,26,13.40
2020,04,27,13,27,13.50
2020,04,27,13,28,13.60
2020,04,27,13,29,13.60
2020,04,27,13,30,13.70
2020,04,27,13,31,13.70
2020,04,27,13,32,13.80
2020,04,27,13,33,13.80
2020,04,27,13,34,13.70
2020,04,27,13,35,13.80
2020,04,27,13,36,13.80
2020,04,27,13,37,13.80
2020,04,27,13,38,13.80
2020,04,27,13,39,13.80
2020,04,27,13,40,13.80
2020,04,27,13,41,13.90
2020,04,27,13,42,13.90
2020,04,27,13,43,13.90
2020,04,27,13,44,13.90
2020,04,27,13,45,14.00
2020,04,27,13,46,14.00
2020,04,27,13,47,14.00
2020,04,27,13,48,14.10
2020,04,27,13,49,14.20
2020,04,27,13,50,14.30
2020,04,27,13,51,14.40
2020,04,27,13,52,14.50
2020,04,27,13,53,14.60
2020,04,27,13,54,14.60
2020,04,27,13,55,14.70
2020,04,27,13,56,14.70
2020,04,27,13,57,14.80
2020,04,27,13,58,14.80
2020,04,27,13,59,14.80
2020,04,27,14,00,14.80
2020,04,27,14,01,14.80
2020,04,27,14,02,14.80
2020,04,27,14,03,14.70
2020,04,27,14,04,14.70
2020,04,27,14,05,14.70
2020,04,27,14,06,14.60
2020,04,27,14,07,14.60
2020,04,27,14,08,14.50
2020,04,27,14,09,14.50
2020,04,27,14,10,14.40
2020,04,27,14,11,14.40
2020,04,27,14,12,14.40
2020,04,27,14,13,14.50
2020,04,27,14,14,14.50
2020,04,27,14,15,14.60
2020,04,27,14,16,14.60
2020,04,27,14,17,14.50
2020,04,27,14,18,14.60
2020,04,27,14,19,14.60
2020,04,27,14,20,14.60
2020,04,27,14,21,14.60
2020,04,27,14,22,14.70
2020,04,27,14,23,14.70
2020,04,27,14,24,14.80
2020,04,27,14,25,14.90
2020,04,27,14,26,15.00
2020,04,27,14,27,15.00
2020,04,27,14,28,15.00
2020,04,27,14,29,15.00
2020,04,27,14,30,15.10
2020,04,27,14,31,15.10
2020,04,27,14,32,15.20
2020,04,27,14,33,15.30
2020,04,27,14,34,15.40
2020,04,27,14,35,15.50
2020,04,27,14,36,15.50
2020,04,27,14,37,15.60
2020,04,27,14,38,15.60
2020,04,27,14,39,15.70
2020,04,27,14,40,15.70
2020,04,27,14,41,15.80
2020,04,27,14,42,15.90
2020,04,27,14,43,15.90
2020,04,27,14,44,15.80
2020,04,27,14,45,15.80
2020,04,27,14,46,15.80
2020,04,27,14,47,15.80
2020,04,27,14,48,15.80
2020,04,27,14,49,15.70
2020,04,27,14,50,15.70
2020,04,27,14,51,15.70
2020,04,27,14,52,15.60
2020,04,27,14,53,15.50
2020,04,27,14,54,15.30
2020,04,27,14,55,15.20
2020,04,27,14,56,15.00
2020,04,27,14,57,14.90
2020,04,27,14,58,14.80
2020,04,27,14,59,14.70
2020,04,27,15,00,14.70
2020,04,27,15,01,14.60
2020,04,27,15,02,14.60
2020,04,27,15,03,14.70
2020,04,27,15,04,14.70
2020,04,27,15,05,14.80
2020,04,27,15,06,14.80
2020,04,27,15,07,14.80
2020,04,27,15,08,14.80
2020,04,27,15,09,14.80
2020,04,27,15,10,14.80
2020,04,27,15,11,14.80
2020,04,27,15,12,14.90
2020,04,27,15,13,15.00
2020,04,27,15,14,15.10
2020,04,27,15,15,15.10
2020,04,27,15,16,15.10
2020,04,27,15,17,15.20
2020,04,27,15,18,15.20
2020,04,27,15,19,15.20
2020,04,27,15,20,15.20
2020,04,27,15,21,15.30
2020,04,27,15,22,15.20
2020,04,27,15,23,15.30
2020,04,27,15,24,15.30
2020,04,27,15,25,15.30
2020,04,27,15,26,15.30
2020,04,27,15,27,15.30
2020,04,27,15,28,15.30
2020,04,27,15,29,15.30
2020,04,27,15,30,15.30
2020,04,27,15,31,15.30
2020,04,27,15,32,15.30
2020,04,27,15,33,15.40
2020,04,27,15,34,15.50
2020,04,27,15,35,15.60
2020,04,27,15,36,15.60
2020,04,27,15,37,15.50
2020,04,27,15,38,15.50
2020,04,27,15,39,15.50
2020,04,27,15,40,15.50
2020,04,27,15,41,15.50
2020,04,27,15,42,15.50
2020,04,27,15,43,15.50
2020,04,27,15,44,15.50
2020,04,27,15,45,15.40
2020,04,27,15,46,15.40
2020,04,27,15,47,15.30
2020,04,27,15,48,15.20
2020,04,27,15,49,15.30
2020,04,27,15,50,15.30
2020,04,27,15,51,15.30
2020,04,27,15,52,15.40
2020,04,27,15,53,15.40
2020,04,27,15,54,15.30
2020,04,27,15,55,15.30
2020,04,27,15,56,15.20
2020,04,27,15,57,15.10
2020,04,27,15,58,15.10
2020,04,27,15,59,15.00
2020,04,27,16,00,15.00
2020,04,27,16,01,15.00
2020,04,27,16,02,15.10
2020,04,27,16,03,15.00
2020,04,27,16,04,15.10
2020,04,27,16,05,15.20
2020,04,27,16,06,15.30
2020,04,27,16,07,15.30
2020,04,27,16,08,15.30
2020,04,27,16,09,15.30
2020,04,27,16,10,15.30
2020,04,27,16,11,15.30
2020,04,27,16,12,15.30
2020,04,27,16,13,15.40
2020,04,27,16,14,15.40
2020,04,27,16,15,15.40
2020,04,27,16,16,15.50
2020,04,27,16,17,15.60
2020,04,27,16,18,15.60
2020,04,27,16,19,15.60
2020,04,27,16,20,15.60
2020,04,27,16,21,15.60
2020,04,27,16,22,15.50
2020,04,27,16,23,15.50
2020,04,27,16,24,15.50
2020,04,27,16,25,15.50
2020,04,27,16,26,15.40
2020,04,27,16,27,15.40
2020,04,27,16,28,15.30
2020,04,27,16,29,15.30
2020,04,27,16,30,15.30
2020,04,27,16,31,15.30
2020,04,27,16,32,15.30
2020,04,27,16,33,15.30
2020,04,27,16,34,15.30
2020,04,27,16,35,15.30
2020,04,27,16,36,15.20
2020,04,27,16,37,15.20
2020,04,27,16,38,15.20
2020,04,27,16,39,15.20
2020,04,27,16,40,15.20
2020,04,27,16,41,15.20
2020,04,27,16,42,15.20
2020,04,27,16,43,15.20
2020,04,27,16,44,15.20
2020,04,27,16,45,15.20
2020,04,27,16,46,15.20
2020,04,27,16,47,15.20
2020,04,27,16,48,15.20
2020,04,27,16,49,15.20
2020,04,27,16,50,15.30
2020,04,27,16,51,15.20
2020,04,27,16,52,15.20
2020,04,27,16,53,15.20
2020,04,27,16,54,15.20
2020,04,27,16,55,15.20
2020,04,27,16,56,15.20
2020,04,27,16,57,15.20
2020,04,27,16,58,15.20
2020,04,27,16,59,15.30
2020,04,27,17,00,15.30
2020,04,27,17,01,15.20
2020,04,27,17,02,15.20
2020,04,27,17,03,15.10
2020,04,27,17,04,15.20
2020,04,27,17,05,15.20
2020,04,27,17,06,15.20
2020,04,27,17,07,15.30
2020,04,27,17,08,15.30
2020,04,27,17,09,15.30
2020,04,27,17,10,15.40
2020,04,27,17,11,15.40
2020,04,27,17,12,15.40
2020,04,27,17,13,15.50
2020,04,27,17,14,15.50
2020,04,27,17,15,15.50
2020,04,27,17,16,15.50
2020,04,27,17,17,15.40
2020,04,27,17,18,15.40
2020,04,27,17,19,15.40
2020,04,27,17,20,15.50
2020,04,27,17,21,15.50
2020,04,27,17,22,15.40
2020,04,27,17,23,15.40
2020,04,27,17,24,15.40
2020,04,27,17,25,15.40
2020,04,27,17,26,15.40
2020,04,27,17,27,15.40
2020,04,27,17,28,15.40
2020,04,27,17,29,15.50
2020,04,27,17,30,15.50
2020,04,27,17,31,15.60
2020,04,27,17,32,15.60
2020,04,27,17,33,15.60
2020,04,27,17,34,15.60
2020,04,27,17,35,15.60
2020,04,27,17,36,15.70
2020,04,27,17,37,15.70
2020,04,27,17,38,15.80
2020,04,27,17,39,15.70